Wind_Speed
16 17 16 16 15 16 16 16 14 15 15 14 14 16 17 17 17 17 18 19 20 21 23 24 24 24 24 23 22 19 19 20 21 22 24 27 29 32 32 31 30 30 30 31 32 34 33 32 31 30 28 27 26 26 25 24 23 22 21 21 20 20 19 19 18 16 15 15 14 14 13 13 12 12 11 11 11 11 11 11 11 10 9 8 6
14 14 14 14 14 15 16 15 15 16 16 15 15 16 17 17 17 18 18 19 19 21 22 24 24 24 24 24 22 20 19 20 20 21 23 27 30 32 34 33 32 30 29 30 31 33 34 34 33 32 31 30 28 28 27 26 25 25 24 23 23 22 21 20 19 18 17 16 16 16 15 15 14 13 13 13 13 13 12 12 12 12 12 11 10
12 11 11 11 12 13 15 16 16 17 17 16 16 16 16 17 17 18 18 18 18 19 21 23 24 24 24 24 23 21 21 22 21 22 23 26 28 31 34 35 34 32 30 30 30 32 34 35 35 34 34 33 31 30 29 29 28 27 26 26 25 24 23 22 21 20 19 18 18 18 17 16 16 16 15 15 15 14 14 14 13 13 13 13 13
11 11 10 10 11 13 15 16 16 16 16 16 16 15 15 15 17 18 18 18 18 18 20 21 22 23 23 24 23 21 21 22 22 22 23 25 27 29 32 35 35 34 32 30 30 31 33 35 35 35 36 35 33 32 31 30 30 29 28 28 27 26 25 24 23 22 21 21 21 20 19 19 18 18 17 17 17 16 16 15 15 15 15 15 14
10 10 11 12 12 13 15 15 15 16 16 16 16 16 16 16 17 18 17 17 17 17 17 18 19 21 22 22 22 21 21 22 22 22 22 24 25 26 29 33 36 35 33 32 31 31 32 34 35 36 36 36 36 35 33 33 32 31 31 30 29 28 27 26 25 24 24 24 23 23 22 21 21 20 20 19 19 18 18 17 17 17 16 16 16
9 10 11 13 14 14 14 15 15 15 15 16 17 16 16 16 17 17 17 17 17 17 17 17 18 19 21 22 21 21 21 22 23 23 22 23 23 24 25 30 35 36 35 34 32 31 32 33 34 35 36 37 37 36 35 35 34 33 32 32 31 30 29 28 26 26 26 26 25 25 24 23 23 22 22 21 21 20 20 19 19 18 18 17 17
9 9 10 12 13 14 14 14 14 14 14 15 15 15 15 16 17 18 17 16 17 18 17 17 17 18 20 21 21 22 22 22 23 23 23 22 22 23 24 26 31 35 36 36 34 32 31 32 33 35 36 37 38 37 36 36 35 35 34 34 32 32 31 29 28 28 28 27 26 26 25 25 24 23 23 23 22 22 21 21 21 20 20 19 19
9 9 9 11 12 13 13 13 13 13 13 13 14 14 14 15 16 17 16 15 16 16 17 17 18 18 19 19 21 22 22 21 22 23 24 24 23 24 24 25 28 32 36 38 36 34 32 32 33 34 36 37 38 37 36 36 36 36 36 35 34 33 32 31 30 30 29 28 27 26 25 25 25 24 24 24 24 24 24 23 23 22 22 21 20
10 9 9 10 10 11 12 12 12 12 11 11 12 13 13 14 14 14 14 13 15 15 16 18 18 18 18 18 19 21 22 20 21 22 24 25 24 24 24 25 28 31 34 37 38 36 34 33 32 33 34 35 36 36 36 36 36 36 36 36 35 34 33 32 33 32 30 29 29 27 27 27 26 26 26 26 26 26 25 25 25 24 24 23 22
10 10 10 9 10 11 11 12 12 12 11 11 12 12 13 14 13 12 13 13 14 15 16 16 17 17 17 17 18 19 21 21 20 21 23 24 23 24 24 25 27 30 32 35 39 39 36 34 33 32 32 32 33 34 34 35 36 36 36 35 35 34 34 33 33 32 31 30 30 29 29 29 29 28 28 29 28 28 27 26 26 26 26 24 23
10 11 11 10 10 11 12 12 13 12 12 12 12 12 13 14 13 12 13 13 13 14 15 15 15 16 16 17 18 19 20 21 21 20 20 22 23 23 24 25 26 28 31 34 38 41 39 36 35 33 31 31 31 32 32 32 33 34 34 34 34 34 34 33 33 32 31 31 30 30 30 30 31 30 30 30 30 29 28 27 27 27 27 26 25
10 11 12 12 12 12 13 13 13 13 13 12 13 13 14 14 14 13 13 12 13 14 14 15 15 15 15 16 18 19 19 19 19 19 19 20 22 24 24 25 27 28 30 32 37 41 41 38 36 33 31 30 30 30 30 30 31 32 32 32 32 33 32 32 32 31 31 31 31 31 31 31 31 31 30 30 29 29 28 28 27 27 28 28 26
10 11 12 13 13 13 14 14 14 14 14 14 14 15 15 14 14 14 14 13 14 14 14 14 15 15 15 15 16 17 18 18 17 17 18 18 19 21 22 24 27 29 30 31 34 39 41 39 37 34 31 30 29 29 29 29 29 30 30 30 30 31 30 30 30 30 30 31 31 31 30 30 30 30 30 29 29 28 28 28 28 28 28 28 27
11 11 12 12 13 14 14 14 15 15 15 15 15 16 16 15 15 15 15 15 14 15 15 15 15 15 15 15 15 16 17 17 17 17 17 16 15 17 17 18 20 24 28 30 32 37 41 41 38 36 33 31 30 30 30 31 30 29 29 29 28 29 28 28 28 29 30 30 30 30 29 29 30 30 30 29 29 28 28 28 28 28 28 28 28
12 12 12 12 12 13 14 14 14 15 16 16 17 17 17 17 16 16 16 15 15 16 16 15 15 16 15 15 16 16 16 16 17 17 16 16 16 16 16 16 15 16 20 25 29 34 40 42 40 37 36 33 32 32 32 32 31 30 30 29 28 28 27 27 28 29 30 30 30 30 29 29 30 30 30 30 29 28 27 27 27 27 28 28 28
13 13 13 13 13 13 13 13 14 15 16 17 17 18 18 18 17 17 17 17 17 17 17 16 16 17 17 17 17 17 17 17 18 17 17 16 16 16 16 16 16 14 14 17 23 30 37 42 42 41 39 36 35 34 33 32 32 31 31 31 29 28 26 27 28 29 30 30 30 30 29 30 29 29 29 29 29 27 26 26 26 26 26 26 26
12 13 13 13 13 13 13 13 14 15 16 17 17 18 18 18 18 18 18 18 18 18 18 17 17 18 18 19 18 18 19 18 18 18 17 16 17 17 16 15 16 16 15 15 18 24 31 38 43 43 41 39 37 36 35 34 33 32 32 32 30 28 27 28 29 29 30 30 30 30 30 30 29 29 29 29 29 27 26 25 25 25 25 25 25
12 13 13 13 13 13 13 13 13 14 15 16 16 17 17 18 18 19 19 19 19 19 19 18 18 19 19 20 20 20 20 19 19 18 17 16 16 16 16 14 14 15 15 15 16 18 24 31 38 43 44 42 39 38 38 37 35 34 34 34 32 31 29 29 30 29 29 29 29 30 31 30 29 29 29 29 29 28 26 25 25 25 25 24 24
11 12 12 13 13 14 13 13 13 13 14 15 16 16 17 17 18 19 20 20 20 20 20 20 19 19 21 21 20 20 20 20 20 19 18 18 16 16 16 15 14 14 14 15 15 16 19 24 31 38 43 44 43 41 41 40 39 38 37 37 36 35 33 32 32 31 30 30 30 31 32 31 30 30 29 29 29 28 27 26 26 26 25 24 24
12 11 11 12 13 13 13 13 13 13 14 15 15 16 17 18 18 19 20 21 21 21 21 21 21 20 21 21 20 20 20 20 20 20 20 19 18 18 17 16 17 17 17 16 15 15 17 20 24 30 37 43 44 44 44 43 43 42 41 40 39 38 37 35 35 35 34 33 32 33 33 33 32 31 30 31 31 30 29 28 27 27 27 26 26
12 11 11 12 12 13 13 13 13 13 14 15 16 17 17 18 19 20 20 21 22 22 22 22 22 22 22 22 20 20 21 21 20 20 19 18 18 17 17 17 17 18 19 19 17 15 14 17 20 23 27 31 37 41 44 45 45 44 44 43 43 42 41 39 38 38 37 36 36 35 35 35 35 34 34 33 33 32 31 31 30 29 29 28 28
11 11 11 12 12 12 12 13 13 13 14 15 16 17 17 18 19 20 21 21 22 22 22 23 22 22 22 21 20 21 22 22 22 22 22 21 20 19 19 19 19 19 21 21 20 18 16 16 18 18 18 20 23 28 33 38 41 43 44 45 45 45 44 43 42 41 40 39 38 38 38 38 39 38 38 36 35 34 34 33 34 33 32 31 30
10 10 11 11 11 11 11 12 13 13 13 14 15 16 17 18 19 19 20 21 21 21 21 22 22 21 21 20 21 21 21 22 23 24 25 25 24 23 23 23 23 24 24 23 22 20 19 19 20 19 18 18 19 20 23 27 31 36 40 43 45 46 46 45 44 43 42 41 41 41 41 41 42 42 41 41 39 38 37 36 37 37 36 34 34
10 10 10 10 10 10 10 11 11 12 13 13 14 15 16 17 18 18 19 20 20 20 20 20 20 20 20 19 20 21 21 22 23 24 25 25 25 25 25 25 26 26 26 25 24 23 22 22 22 22 21 22 22 22 23 24 25 27 29 35 41 44 45 44 43 43 43 42 42 43 43 43 44 44 43 44 43 42 41 40 39 40 39 38 37
10 10 10 10 10 10 10 10 10 11 12 12 13 14 15 16 17 17 18 19 19 18 18 18 19 18 18 18 19 20 21 22 23 24 25 25 25 25 25 26 26 26 26 26 26 25 24 24 24 23 23 24 24 25 25 25 25 23 22 28 35 38 41 42 41 42 42 41 43 45 46 44 44 44 43 43 44 44 45 44 42 42 41 41 39
10 11 11 11 11 11 10 10 10 10 10 11 12 12 13 14 15 16 17 18 18 18 17 17 17 17 16 16 17 18 19 20 21 22 23 23 24 24 24 24 25 26 26 25 25 25 24 24 23 23 23 24 25 26 26 26 26 24 23 26 30 31 34 37 39 39 40 40 42 44 45 43 41 41 40 40 42 44 46 46 45 44 44 44 42
10 11 11 12 12 12 12 12 11 10 10 10 11 11 12 13 13 14 15 16 17 17 17 17 17 16 16 15 15 16 17 18 19 20 20 20 20 21 21 22 22 23 23 23 23 23 22 22 22 22 22 23 24 25 26 26 26 26 25 25 26 28 31 34 36 37 38 39 40 40 41 41 41 41 41 40 40 42 44 45 44 43 43 43 43
10 11 11 11 12 12 13 13 13 12 11 11 11 11 12 12 13 14 14 15 16 17 17 17 17 16 16 16 15 16 16 16 17 17 17 17 17 17 18 18 19 20 21 20 19 19 19 19 19 19 20 21 22 24 25 26 26 26 25 25 25 27 29 32 34 37 38 40 41 41 42 42 43 44 44 42 41 41 42 43 43 41 40 40 41
12 11 12 12 12 12 12 13 13 14 13 13 12 12 12 13 13 14 14 15 16 16 17 17 17 17 16 16 16 16 16 16 16 16 15 15 15 15 15 16 17 17 18 18 17 16 16 16 17 17 18 19 20 22 23 24 24 25 24 24 24 25 26 28 30 32 35 37 39 41 41 42 43 44 44 43 42 42 43 43 42 39 38 39 41
13 13 13 13 13 13 13 13 13 14 14 14 14 13 13 13 14 14 15 15 16 16 16 17 17 16 16 16 16 16 16 16 16 16 15 14 14 14 14 14 15 15 15 15 15 14 13 14 14 14 15 16 18 19 20 21 22 23 23 24 23 23 23 24 25 26 28 30 32 34 36 38 39 40 41 41 41 42 42 43 42 41 40 39 38
15 15 15 15 15 15 15 15 15 14 14 14 14 14 14 14 14 14 15 16 16 16 16 16 17 16 16 16 16 16 16 16 16 16 15 15 14 14 14 15 15 15 15 15 15 14 13 12 12 12 13 14 15 17 18 19 20 20 21 22 22 23 22 23 23 23 23 24 24 26 28 29 31 32 34 35 36 38 39 41 42 42 39 37 35
18 17 18 18 17 17 17 16 16 15 14 13 13 13 13 13 14 14 15 15 16 17 17 17 17 17 17 17 16 16 16 16 16 16 16 16 15 15 15 15 16 16 16 16 16 15 15 14 13 13 14 14 15 16 16 17 18 18 19 20 20 21 21 22 22 22 22 22 22 22 22 22 23 25 26 27 28 29 31 33 35 35 34 34 34
19 20 20 20 20 19 19 18 17 16 14 13 13 13 13 14 14 14 14 14 15 16 17 18 18 18 18 17 17 17 17 17 17 17 17 17 16 16 16 16 16 16 17 17 17 17 16 16 15 15 16 16 16 16 17 17 18 18 19 19 20 21 21 22 22 22 22 22 23 22 22 22 22 22 23 23 24 24 24 25 26 28 29 31 32
20 21 22 21 20 20 20 21 20 18 16 15 14 14 14 14 15 15 15 15 15 15 16 17 18 19 19 19 19 19 18 18 18 18 17 17 17 17 17 17 17 17 17 17 18 18 18 18 17 17 17 18 18 18 18 19 19 20 20 21 21 22 22 22 23 24 24 24 25 24 24 24 24 24 25 25 25 24 24 25 25 26 27 28 29
21 22 23 22 21 21 21 22 22 21 20 19 18 17 17 16 17 17 17 17 17 16 16 16 17 17 18 19 20 20 20 20 20 20 19 19 19 19 19 19 19 19 19 19 19 19 19 20 20 20 20 20 20 20 20 21 21 22 22 23 23 24 24 24 25 25 26 27 27 27 27 27 27 27 27 27 27 27 27 27 27 28 28 28 29
23 23 24 25 26 25 25 25 26 25 24 23 21 20 20 19 20 20 20 20 19 18 18 17 17 17 17 18 19 20 20 21 21 21 21 21 21 21 21 21 21 21 21 21 21 21 21 22 22 22 22 23 23 23 23 23 24 24 24 25 25 26 26 26 27 27 28 28 29 29 29 29 29 29 30 30 30 30 30 30 31 31 31 31 32
24 25 25 26 28 29 28 29 29 29 28 27 26 25 24 23 23 23 23 23 22 22 21 20 20 19 19 19 19 20 20 20 20 20 20 20 21 21 21 22 22 22 22 21 21 21 21 22 22 23 23 23 24 25 25 24 25 25 26 26 27 27 27 28 28 29 29 30 31 31 31 31 31 31 32 32 33 33 33 33 34 34 34 34 34
25 26 27 27 27 28 29 31 31 31 31 29 28 28 29 28 28 28 27 27 26 25 24 23 22 22 22 21 21 22 21 21 21 21 21 21 21 21 21 22 22 22 22 21 21 21 21 22 22 23 23 23 23 24 24 24 24 25 25 26 27 27 28 29 29 30 30 30 31 32 32 33 33 33 34 34 35 35 36 36 36 36 36 36 37
28 28 28 28 28 27 27 28 29 29 29 27 26 27 29 31 32 32 31 31 30 28 27 26 25 25 25 25 25 25 24 24 23 23 23 23 23 23 23 23 23 23 23 23 23 23 23 23 24 24 24 25 24 24 24 24 24 24 25 25 26 27 27 28 29 30 30 31 31 32 33 33 34 34 35 35 36 37 37 38 38 38 39 39 39
32 32 31 31 31 31 30 31 32 32 31 30 29 29 30 30 31 31 31 33 33 31 30 29 28 28 28 28 28 28 27 27 27 27 27 26 26 26 25 26 26 26 26 26 26 25 25 26 26 25 26 27 27 27 27 27 27 27 27 26 27 28 29 29 29 30 30 30 31 32 33 34 34 34 35 36 37 38 38 39 39 40 40 41 41
37 37 36 36 36 36 36 37 38 38 37 36 35 34 33 33 33 32 31 33 35 35 34 33 32 31 31 31 31 30 30 30 30 30 30 30 29 29 29 29 30 30 30 30 30 29 29 29 29 29 29 30 31 30 31 32 32 32 32 31 30 31 31 32 32 33 32 32 32 32 33 34 35 35 36 36 37 38 38 39 40 41 42 42 43
41 41 40 40 40 41 41 41 41 41 41 40 39 38 37 36 36 35 33 33 34 35 35 35 35 34 34 34 34 33 32 33 33 34 34 33 33 33 33 33 34 34 34 35 35 34 34 33 33 33 34 35 36 36 36 37 37 37 37 37 36 36 35 35 36 38 38 37 36 35 36 37 37 36 37 38 39 40 40 40 40 40 41 42 43
44 44 44 44 44 44 44 44 45 45 45 44 43 42 40 39 38 38 37 36 36 36 36 36 36 36 36 36 36 35 35 34 35 36 37 37 37 37 37 38 38 38 39 39 40 39 39 38 38 39 39 40 41 42 42 42 43 43 43 42 42 41 40 39 39 41 43 43 41 39 40 41 42 40 40 40 41 42 42 42 42 42 42 42 43
46 46 46 46 46 46 47 47 47 47 47 46 46 44 43 43 42 41 41 40 40 40 40 40 41 42 42 41 41 41 41 40 40 41 41 41 41 41 41 42 42 43 44 44 44 44 44 43 43 44 44 44 45 46 47 47 47 48 49 49 48 47 46 45 43 43 45 47 46 44 43 44 46 45 44 45 45 45 45 45 45 46 46 46 45
45 46 47 47 47 48 48 48 48 48 48 47 46 45 45 45 45 45 44 43 43 43 44 44 46 47 46 45 44 45 45 46 47 48 48 49 49 48 47 48 48 49 49 49 49 49 49 48 48 48 48 48 48 49 50 51 51 51 52 52 53 53 52 50 49 48 48 49 50 49 47 47 48 49 48 49 50 49 49 49 49 49 49 50 49
44 45 46 46 47 48 48 48 48 47 47 47 46 46 46 46 46 47 46 46 46 46 46 47 47 48 47 46 45 45 46 47 48 49 50 51 51 51 51 52 53 53 53 52 53 53 53 52 51 51 52 52 53 53 53 54 54 55 55 55 55 55 55 54 54 53 52 53 53 53 51 50 51 51 51 53 53 53 53 53 53 53 53 53 53
48 47 48 48 48 48 47 47 46 46 46 46 46 46 46 46 47 47 47 47 47 48 48 48 48 48 47 47 46 46 47 47 48 49 50 51 51 52 52 53 53 54 54 55 55 55 55 55 55 55 56 56 56 57 57 57 57 58 58 57 57 57 57 57 56 55 56 56 57 57 55 53 54 54 54 55 56 56 56 57 57 57 57 57 56
50 50 51 51 50 50 49 47 46 46 45 46 46 46 46 46 47 47 47 47 47 47 48 48 48 48 48 48 48 49 48 47 46 47 49 50 51 51 52 53 54 54 56 56 57 57 57 58 58 58 58 59 59 59 59 59 60 60 60 60 60 60 60 59 57 57 57 58 58 59 58 56 56 56 55 56 57 57 58 59 60 60 61 60 60
52 53 54 53 52 51 50 49 48 47 47 46 46 46 46 47 47 48 48 48 47 47 47 48 48 49 49 49 50 51 50 49 48 48 48 49 49 50 51 53 54 55 56 57 58 58 59 59 60 60 60 61 61 61 61 61 61 62 62 62 62 62 62 60 59 58 59 59 60 60 59 58 57 57 56 56 56 57 59 60 62 62 63 63 63
54 54 53 52 52 51 50 50 50 49 49 48 48 48 48 48 48 48 48 49 48 48 48 48 48 49 49 49 50 50 50 50 49 49 48 48 49 50 51 52 52 53 54 56 57 59 60 60 61 61 62 62 62 62 63 63 63 64 63 63 63 64 63 62 61 60 60 60 61 61 60 59 58 58 57 57 56 57 58 59 61 62 63 64 65
53 52 51 51 51 52 51 51 51 51 51 51 50 50 50 50 49 49 49 49 49 49 49 49 49 49 49 49 50 50 50 50 50 50 50 50 50 50 51 51 51 52 53 54 56 57 58 59 59 60 61 61 62 63 63 64 64 64 64 64 65 64 64 63 63 62 61 60 61 62 61 60 60 60 59 58 57 57 58 58 59 61 62 63 64
Wind_Direction
267 263 262 261 258 254 251 250 248 248 250 252 255 255 252 251 250 248 245 243 243 243 244 243 242 242 244 246 246 237 232 237 239 236 235 234 231 230 231 233 233 233 234 236 237 237 238 238 237 237 237 235 234 235 235 236 235 234 233 231 229 229 229 229 228 229 230 231 234 237 240 243 246 251 257 262 268 272 278 283 288 291 292 293 294
269 264 262 262 259 255 252 249 245 246 248 248 251 254 252 250 249 249 249 246 244 244 246 246 245 244 244 245 245 240 236 237 239 237 235 234 233 231 231 232 233 234 234 235 236 237 238 238 238 238 238 236 235 235 235 236 235 234 234 234 233 232 231 231 231 231 232 234 236 239 241 244 247 251 255 259 264 267 272 277 283 287 290 291 290
268 262 259 260 258 254 251 247 244 245 248 249 252 255 254 250 248 250 251 250 248 247 248 249 248 248 246 246 246 242 240 240 240 240 238 236 235 234 232 232 232 233 234 235 235 235 236 237 238 238 239 238 237 236 236 236 237 236 236 236 235 234 233 233 233 233 234 235 237 240 242 245 248 251 254 257 260 263 267 271 276 280 284 287 289
263 254 249 249 248 247 247 247 247 248 250 253 254 255 256 255 252 251 252 252 252 251 250 250 250 251 250 250 250 247 245 243 243 243 241 239 237 237 236 234 232 233 235 236 236 235 235 235 237 238 239 239 239 238 237 237 238 239 238 239 239 237 236 236 236 235 236 239 241 242 244 247 249 251 253 256 258 260 263 266 269 273 278 282 285
259 252 246 241 239 240 243 246 249 251 254 255 256 256 258 260 259 257 255 254 255 254 253 251 250 250 251 252 252 249 245 243 242 242 242 241 239 238 237 235 233 233 235 237 237 236 235 235 237 238 239 240 241 241 240 239 239 240 240 241 242 241 241 241 240 239 241 244 246 247 248 249 250 252 253 255 257 258 260 263 265 268 271 275 278
263 254 248 243 240 241 244 248 251 255 258 257 257 258 259 260 260 258 255 254 253 253 253 252 249 249 249 251 251 248 242 239 239 238 238 239 240 240 239 238 235 234 236 238 239 238 237 237 238 239 239 239 242 243 242 241 240 241 241 243 244 245 245 246 245 245 247 249 252 253 253 252 252 253 254 255 256 257 259 261 263 265 267 269 272
265 256 247 242 241 243 246 250 252 255 259 259 257 257 259 260 258 255 253 252 250 250 251 253 253 252 251 250 250 248 243 238 236 236 236 236 237 238 239 240 240 238 237 239 240 241 240 238 239 241 241 239 241 244 244 243 242 243 243 244 246 247 249 250 250 251 253 254 256 257 257 255 254 254 255 256 257 257 259 260 261 263 265 267 269
262 257 248 242 242 245 246 248 249 252 254 256 256 255 256 257 254 253 252 249 248 249 252 254 256 256 255 253 251 250 247 240 235 233 233 234 235 236 237 238 241 241 239 239 240 241 241 241 241 242 243 241 240 244 246 245 245 246 246 247 248 249 251 252 254 256 258 259 259 259 259 257 257 257 258 259 259 259 259 259 260 261 263 265 267
264 259 253 247 243 243 244 245 245 246 247 250 252 252 252 252 251 250 250 248 248 250 250 252 256 258 258 258 256 253 250 245 238 233 233 235 237 238 239 239 240 242 240 238 238 239 240 242 244 245 246 245 243 244 247 247 247 248 248 248 249 250 252 254 256 258 260 261 261 261 260 260 260 261 262 263 262 261 259 259 259 260 261 262 264
270 264 259 253 245 241 242 244 242 242 243 245 249 252 254 255 254 250 251 250 248 247 246 248 252 257 260 260 259 253 249 247 242 237 237 239 240 241 242 243 242 244 243 238 236 236 237 240 244 246 247 248 246 245 246 248 249 250 250 250 250 251 253 255 258 260 261 262 262 262 262 262 263 263 264 263 263 263 261 260 259 259 260 260 261
269 266 263 255 247 242 240 242 244 245 247 248 252 255 257 259 258 253 254 254 249 247 247 249 252 255 260 261 261 258 251 250 247 242 241 242 243 244 244 245 245 245 245 241 236 234 234 236 241 245 246 247 246 244 244 247 249 250 251 251 251 252 254 256 259 261 262 263 263 263 263 263 264 264 264 263 263 264 264 262 261 260 259 259 258
261 262 261 257 252 245 241 243 245 248 249 250 252 254 255 258 260 257 257 259 256 252 251 253 256 258 260 262 264 262 256 254 252 245 245 247 246 246 247 248 248 247 246 244 239 233 231 234 238 242 245 245 245 244 243 245 247 249 250 250 251 252 254 256 258 260 262 264 265 264 264 264 265 265 265 264 264 264 264 264 262 261 260 259 258
258 257 258 258 257 252 247 246 246 249 250 251 251 252 254 254 255 255 254 256 257 256 252 252 256 259 261 263 266 267 262 259 259 254 254 256 250 245 248 250 250 248 246 244 240 233 229 231 235 238 241 243 243 243 242 243 245 247 248 250 252 253 254 256 257 259 261 263 264 264 264 264 265 266 266 265 264 264 263 263 263 262 261 260 259
266 264 262 260 258 254 251 248 248 248 247 247 247 249 252 250 247 248 249 252 254 254 252 251 254 257 259 261 264 269 268 263 261 259 258 260 256 250 253 257 256 251 248 246 241 234 228 229 233 236 238 241 242 242 241 241 242 243 245 248 251 253 254 256 257 258 259 259 260 261 262 263 264 264 264 263 263 263 264 264 263 262 261 260 259
274 272 270 266 262 256 253 249 247 245 242 241 241 243 245 245 244 244 246 248 248 249 250 252 253 254 254 256 258 264 269 265 258 256 258 259 259 257 258 261 260 256 253 250 245 239 231 229 231 234 236 238 241 242 242 242 241 241 241 244 247 250 252 254 255 256 257 258 258 259 260 260 261 261 262 262 262 262 263 264 263 261 260 259 258
274 275 274 271 267 261 256 250 246 243 240 238 238 239 240 242 243 243 245 247 247 248 249 251 252 252 252 252 255 257 261 262 258 257 259 260 261 263 264 262 258 257 259 254 248 243 237 233 231 232 234 236 240 243 244 244 243 242 241 241 243 245 249 251 252 254 255 256 256 257 257 258 258 260 260 261 260 261 262 262 262 261 259 258 257
270 272 273 272 270 267 262 257 251 247 245 243 242 242 243 244 245 245 246 247 248 250 250 251 252 253 253 253 255 256 256 258 258 259 260 262 263 264 265 263 257 256 258 254 248 244 241 238 235 233 234 236 239 244 246 245 244 244 244 243 244 245 246 247 249 251 253 254 254 254 255 256 257 257 258 259 259 259 260 261 262 261 259 257 257
268 269 269 270 269 269 267 263 259 255 252 251 251 251 251 251 251 251 250 250 250 251 252 252 250 251 252 253 254 255 256 256 258 260 261 262 261 259 261 261 257 256 256 254 251 246 243 241 239 237 236 237 239 243 246 247 246 246 246 246 246 246 245 245 247 249 252 254 254 253 254 255 255 256 257 258 259 259 260 260 261 260 259 258 257
271 269 269 269 269 269 269 267 265 261 259 257 256 256 256 256 256 256 256 255 253 253 253 252 250 251 252 253 254 256 256 255 257 258 260 261 257 254 259 260 255 250 247 245 244 245 244 242 241 239 238 238 239 241 244 246 247 247 247 247 247 247 246 246 248 249 251 253 253 252 253 254 255 256 257 257 258 259 259 260 260 260 259 258 256
275 272 269 267 267 267 267 267 265 263 262 261 260 258 257 257 257 258 258 258 257 255 255 254 252 252 253 253 254 255 254 252 254 257 259 261 258 256 258 256 252 250 248 245 241 241 245 245 242 240 239 239 240 242 244 246 247 248 248 248 247 248 247 247 248 250 250 251 251 251 252 255 256 255 255 256 257 258 259 260 260 260 260 258 257
279 277 275 271 268 266 265 264 262 261 260 260 261 260 259 258 257 257 258 258 258 257 256 256 255 253 254 255 254 253 253 252 253 256 256 256 255 256 256 253 251 251 252 255 255 253 252 250 245 243 244 243 243 244 246 248 249 250 250 250 249 249 249 249 249 250 251 251 251 251 252 254 255 255 255 255 255 257 258 259 260 260 259 259 258
285 284 283 280 276 271 268 266 265 263 261 260 260 260 259 259 258 258 258 258 258 258 257 256 256 254 254 255 254 253 255 255 254 254 252 249 249 249 248 246 245 247 253 259 261 260 259 254 248 250 255 253 251 250 250 250 251 251 251 250 250 250 250 251 251 251 252 252 252 252 252 252 254 255 256 256 256 256 256 257 259 259 258 258 259
292 292 289 287 284 280 274 270 269 267 265 262 260 260 260 259 258 258 258 258 257 256 256 255 255 254 252 250 250 252 254 255 254 254 254 252 251 249 248 247 247 250 256 259 259 258 258 257 256 259 263 261 257 253 251 251 251 251 251 251 250 249 249 250 251 251 252 253 254 254 254 253 253 254 256 257 257 256 256 256 257 258 258 259 259
299 299 297 293 289 286 280 274 271 268 267 265 262 261 261 260 259 258 258 258 258 257 256 255 255 254 251 247 246 248 251 254 255 256 258 259 258 257 256 256 255 256 257 258 258 258 258 259 260 262 263 261 257 253 250 249 249 249 251 253 252 249 248 249 249 249 250 252 254 255 255 254 254 254 256 258 257 256 256 256 257 258 259 259 260
304 304 302 298 293 289 285 280 274 270 267 265 263 262 261 261 260 260 260 260 259 258 256 255 255 254 251 246 244 244 246 250 253 254 256 259 260 260 260 260 260 260 259 259 261 261 259 259 260 260 260 259 257 255 253 251 251 248 245 249 252 249 248 248 249 249 249 252 254 256 257 256 255 255 255 255 254 255 256 257 258 259 260 260 261
304 306 303 299 295 290 285 280 275 271 268 266 265 264 262 261 261 260 260 260 259 259 256 255 254 253 251 248 244 244 244 246 249 252 255 256 259 261 261 261 262 262 261 261 262 262 261 260 259 258 258 257 256 256 255 253 254 252 245 246 252 252 249 249 250 250 251 252 254 256 257 256 254 253 254 254 253 253 255 257 259 260 261 262 260
295 301 302 299 296 292 287 282 276 271 267 266 266 266 266 264 262 261 259 259 259 257 256 255 253 252 250 248 246 244 244 245 248 251 254 256 258 259 260 261 262 262 262 261 261 261 261 260 259 257 255 254 253 254 255 254 253 252 249 248 250 251 250 249 249 250 251 252 253 254 256 256 253 252 256 260 259 255 254 256 258 260 262 262 261
286 291 293 293 293 292 290 287 282 277 271 266 264 264 266 266 266 264 262 260 260 259 257 255 252 251 249 246 244 243 242 243 246 249 251 253 255 255 257 258 259 260 261 261 260 260 260 260 259 258 255 252 251 251 253 253 253 252 251 250 249 249 250 251 250 250 249 250 250 251 253 255 255 255 258 261 261 257 254 255 258 260 262 263 261
279 281 283 283 284 285 285 285 283 281 277 272 268 265 264 265 267 268 268 265 262 261 259 257 254 252 250 247 245 243 241 241 243 245 246 247 248 248 249 251 252 255 257 259 260 259 259 259 259 258 256 254 252 252 252 253 254 254 254 253 252 251 252 253 254 253 252 251 251 252 253 255 256 257 258 259 260 258 254 254 254 257 262 265 262
276 276 278 278 277 277 276 277 277 277 277 276 274 271 268 266 266 268 270 270 269 265 263 261 259 256 254 251 249 247 245 244 243 244 244 243 242 240 240 242 245 247 250 253 254 254 253 253 254 255 254 253 252 253 253 252 252 253 254 255 255 255 255 255 256 257 256 255 253 252 253 255 256 257 258 258 258 256 253 250 250 254 262 264 262
278 278 280 280 280 278 276 275 274 273 274 275 276 276 273 271 269 268 269 271 272 272 270 267 264 261 258 254 252 250 248 246 245 244 244 243 240 237 235 236 238 240 241 244 246 245 241 240 241 242 242 244 246 250 253 254 253 253 254 255 255 256 255 255 254 255 257 257 256 254 254 254 255 256 257 257 256 255 253 249 249 254 258 260 260
283 281 281 281 280 279 278 277 276 274 273 274 275 278 279 278 276 273 271 270 271 272 273 272 269 265 262 258 254 251 249 248 247 245 244 244 243 240 237 236 238 239 240 241 243 244 242 238 235 233 233 233 235 239 243 247 251 252 253 253 254 255 256 256 255 255 256 257 258 258 257 256 256 257 257 258 258 257 254 251 251 252 254 256 259
283 281 280 281 281 282 282 280 278 276 277 277 276 277 281 282 281 279 277 273 270 269 268 269 269 267 264 261 258 254 251 250 249 249 248 247 247 248 247 245 244 244 244 245 246 249 250 248 244 240 239 237 236 237 239 241 244 248 250 252 253 254 255 256 257 258 258 259 259 260 259 258 257 257 258 259 259 259 258 256 254 253 254 255 257
272 275 278 281 283 284 284 284 283 280 281 283 281 279 279 278 278 278 276 275 272 269 266 264 265 265 264 262 259 257 254 252 250 250 250 251 251 252 253 254 253 252 251 251 251 252 253 255 255 252 250 247 245 244 244 244 244 245 248 250 251 253 254 255 256 258 258 259 259 259 259 258 258 258 258 257 257 258 259 259 258 257 256 256 257
265 268 273 276 277 276 278 282 285 284 286 286 285 283 279 275 274 273 272 272 271 270 269 266 264 263 262 260 258 256 255 254 252 251 251 251 251 252 252 253 254 255 255 255 255 255 255 255 256 256 256 255 253 250 249 248 248 247 248 249 250 252 253 254 254 255 256 257 258 258 257 257 257 257 257 258 258 257 257 258 258 258 257 257 257
262 262 264 269 271 272 275 278 281 283 286 288 287 284 280 277 275 273 271 269 267 268 269 269 268 264 261 260 258 257 255 255 254 253 253 252 253 253 253 254 254 255 257 258 260 260 260 259 258 257 257 258 258 256 254 253 252 252 251 251 251 251 252 253 254 254 255 256 257 258 259 258 258 257 257 257 257 257 256 256 256 257 257 257 256
265 262 262 264 267 270 272 274 276 279 283 286 285 283 282 280 277 275 272 269 267 267 267 267 267 266 263 262 260 258 257 256 256 256 254 254 254 254 254 254 254 255 256 258 260 262 264 266 265 264 262 262 262 261 260 260 260 258 257 256 255 255 254 254 254 254 255 256 257 257 258 259 259 258 258 257 256 256 255 255 254 254 254 255 255
272 269 267 266 267 268 269 269 270 273 277 280 279 280 282 281 278 276 274 271 271 270 268 266 265 266 265 264 262 262 260 259 259 259 258 258 257 256 256 255 254 255 255 256 258 260 263 266 269 270 270 269 268 268 266 265 265 265 265 263 261 260 259 258 257 256 256 257 258 258 258 258 258 258 258 258 257 256 256 255 255 254 253 253 254
276 274 271 269 268 268 269 270 271 273 275 277 277 279 281 281 281 279 276 273 273 272 271 267 264 263 264 263 263 263 263 262 261 261 261 260 260 260 260 259 259 258 258 258 260 261 262 264 266 269 271 272 272 273 273 270 268 267 268 269 270 268 266 264 263 262 260 259 259 259 259 259 259 259 259 259 258 258 258 257 257 256 255 254 253
277 276 275 273 272 270 269 269 272 274 276 276 276 276 278 279 281 282 280 277 274 273 272 269 264 261 261 261 261 260 261 262 262 262 261 260 260 259 259 260 261 261 261 261 262 262 263 264 265 267 269 270 271 272 273 273 273 272 271 270 271 273 273 272 270 268 267 265 264 263 262 261 261 260 260 259 259 259 258 258 258 258 257 256 255
279 279 277 277 276 274 272 272 273 275 276 276 275 275 275 276 278 280 280 278 275 273 273 272 268 263 261 261 261 260 261 262 262 263 262 261 260 259 258 259 259 260 261 261 261 261 262 263 264 266 267 269 271 271 271 272 272 273 273 272 271 272 273 275 275 274 272 271 271 270 268 266 264 263 262 262 261 260 259 259 259 258 258 258 257
279 279 279 278 278 279 278 278 278 278 279 278 277 277 276 276 276 276 276 275 273 271 271 271 269 266 264 262 262 262 263 263 263 264 264 263 263 262 262 262 262 263 263 262 262 261 261 262 262 264 265 267 269 270 270 270 271 271 271 272 272 272 272 272 273 274 274 273 273 274 274 272 270 268 267 265 265 263 262 260 259 259 259 259 259
278 279 279 279 279 280 280 280 280 280 280 280 279 278 277 275 274 274 272 271 270 269 267 266 267 268 267 265 264 265 266 266 266 266 266 265 266 266 266 266 266 267 267 267 266 265 265 265 265 266 266 267 268 268 268 269 270 271 271 271 271 272 272 272 271 272 273 274 273 272 273 274 274 273 271 269 268 266 265 263 262 260 259 259 259
277 278 278 277 277 276 276 277 278 278 279 279 279 278 276 275 274 273 272 270 268 267 266 264 265 267 268 268 267 267 268 268 268 269 269 270 270 270 269 269 269 271 272 272 271 270 270 269 269 268 268 267 268 268 268 268 268 269 270 271 271 271 272 272 271 271 273 274 273 272 271 271 272 272 272 271 269 268 267 266 265 264 262 261 260
277 277 278 277 277 276 276 275 275 275 276 275 275 274 273 273 273 273 272 270 268 266 264 263 263 265 267 268 267 267 268 268 268 268 269 270 270 270 270 270 270 272 273 273 272 272 272 272 270 269 269 268 267 267 267 268 268 268 269 270 271 271 271 272 272 272 272 272 272 272 271 270 270 270 270 268 268 268 268 267 266 266 265 264 263
277 277 277 276 276 276 276 275 275 274 273 272 272 271 270 270 270 270 270 269 267 265 264 263 263 264 265 266 267 267 266 266 266 267 267 267 267 267 267 268 268 270 270 270 270 270 270 270 270 269 268 268 268 267 268 268 268 268 268 269 270 271 271 272 273 273 273 272 272 271 270 270 269 268 268 267 266 266 266 265 265 264 264 264 264
277 277 277 276 275 274 273 273 273 273 273 273 273 272 271 270 270 270 270 270 269 268 267 266 265 265 265 266 267 266 265 265 265 265 265 265 266 266 266 267 267 268 268 268 268 268 268 269 268 268 268 268 268 268 268 268 269 269 269 269 270 270 271 272 273 273 273 273 272 271 270 268 267 266 266 265 265 264 264 263 263 263 262 262 262
277 277 278 277 276 275 274 273 273 272 273 273 274 274 273 272 272 272 273 272 271 270 270 269 268 267 267 267 268 269 270 270 267 264 263 263 264 265 265 266 266 266 266 267 267 268 268 268 268 268 268 268 268 268 269 269 269 269 270 270 270 270 270 270 271 271 272 272 272 271 270 268 267 265 264 263 262 262 261 261 261 261 261 261 261
276 277 277 275 274 274 274 274 273 273 272 272 272 272 272 272 272 272 272 272 272 271 271 271 270 270 270 269 270 271 273 273 270 267 265 264 264 264 264 264 264 265 265 266 267 267 267 267 268 268 268 268 269 269 269 270 270 270 270 270 270 270 270 270 270 269 270 270 270 270 269 268 267 265 264 262 261 260 260 259 259 259 259 259 260
275 275 274 273 271 271 271 271 272 272 272 271 271 271 271 271 271 271 271 272 272 272 272 272 272 272 272 271 271 272 272 271 271 270 269 267 266 265 265 265 265 265 265 266 266 266 266 266 266 267 267 267 268 268 268 268 269 269 269 269 269 269 270 270 270 269 268 268 268 268 268 267 266 265 264 263 262 261 260 259 259 259 258 258 258
272 272 271 270 270 270 269 269 270 270 270 271 271 271 271 271 271 272 272 273 273 273 273 273 273 274 273 273 272 272 272 271 271 270 270 269 269 268 268 268 268 267 266 266 265 265 265 266 266 266 266 267 267 267 267 267 267 267 267 267 267 268 268 268 268 268 268 267 267 267 267 266 266 266 265 264 262 261 261 260 259 259 259 258 258
Height
5800 5800 5801 5801 5802 5802 5802 5803 5804 5804 5804 5805 5805 5805 5805 5806 5806 5806 5807 5807 5808 5808 5808 5808 5809 5810 5810 5811 5812 5815 5816 5817 5817 5818 5818 5819 5820 5821 5822 5823 5824 5825 5826 5827 5828 5830 5831 5832 5833 5834 5834 5835 5836 5836 5837 5838 5840 5840 5841 5841 5842 5842 5843 5844 5844 5845 5846 5846 5847 5847 5847 5847 5848 5848 5848 5848 5848 5848 5848 5848 5848 5848 5848 5848 5848
5799 5799 5799 5800 5800 5800 5801 5802 5802 5802 5802 5802 5803 5803 5804 5804 5804 5804 5804 5805 5806 5806 5806 5806 5807 5808 5808 5809 5810 5812 5814 5814 5815 5816 5816 5816 5817 5818 5819 5820 5821 5823 5824 5824 5826 5827 5828 5830 5831 5832 5832 5833 5834 5834 5835 5836 5837 5838 5839 5839 5840 5840 5841 5842 5843 5843 5844 5845 5845 5845 5846 5846 5846 5847 5847 5847 5847 5847 5847 5847 5847 5847 5847 5847 5847
5797 5797 5798 5799 5799 5799 5800 5800 5800 5800 5800 5801 5801 5802 5802 5802 5802 5802 5802 5803 5804 5804 5804 5805 5805 5806 5806 5806 5807 5810 5811 5812 5813 5814 5813 5813 5814 5815 5816 5817 5819 5820 5821 5822 5823 5824 5825 5827 5828 5829 5830 5831 5832 5832 5833 5834 5835 5836 5836 5837 5838 5838 5839 5840 5841 5842 5842 5843 5843 5844 5844 5845 5845 5845 5846 5846 5846 5846 5846 5846 5846 5846 5846 5846 5846
5795 5796 5797 5797 5797 5797 5797 5798 5798 5799 5799 5799 5800 5800 5801 5801 5800 5800 5801 5801 5802 5803 5803 5803 5803 5804 5805 5805 5805 5807 5809 5810 5811 5812 5812 5811 5812 5813 5814 5815 5816 5817 5819 5820 5820 5821 5822 5824 5825 5826 5827 5828 5830 5831 5831 5832 5833 5833 5834 5835 5836 5836 5837 5838 5839 5840 5841 5841 5842 5842 5843 5843 5844 5844 5844 5844 5844 5845 5845 5845 5845 5845 5845 5845 5844
5794 5795 5795 5795 5795 5795 5795 5796 5797 5798 5798 5799 5799 5799 5799 5799 5799 5799 5800 5800 5801 5801 5801 5801 5802 5802 5802 5802 5803 5805 5806 5807 5809 5809 5810 5810 5810 5811 5811 5812 5813 5815 5816 5817 5818 5819 5820 5821 5822 5823 5825 5826 5827 5828 5829 5830 5831 5831 5832 5833 5834 5834 5835 5836 5837 5838 5839 5839 5840 5840 5841 5842 5842 5842 5843 5843 5843 5843 5843 5843 5843 5843 5843 5843 5843
5792 5793 5793 5793 5793 5793 5794 5795 5796 5797 5797 5797 5797 5797 5797 5797 5797 5797 5798 5799 5799 5799 5799 5799 5799 5800 5799 5800 5800 5802 5803 5804 5805 5806 5807 5807 5808 5809 5809 5810 5811 5812 5814 5815 5816 5817 5818 5819 5820 5821 5822 5824 5825 5826 5827 5828 5829 5829 5830 5831 5831 5832 5833 5834 5835 5836 5837 5838 5838 5839 5839 5840 5840 5840 5841 5841 5841 5841 5841 5841 5841 5841 5841 5841 5842
5790 5791 5791 5791 5792 5792 5793 5794 5795 5795 5796 5796 5796 5795 5795 5795 5795 5795 5796 5797 5797 5797 5797 5797 5797 5797 5798 5798 5798 5799 5800 5802 5802 5803 5804 5805 5806 5806 5807 5808 5809 5810 5811 5812 5813 5815 5816 5817 5818 5818 5819 5820 5822 5823 5824 5825 5826 5827 5828 5828 5829 5830 5831 5832 5833 5834 5835 5836 5836 5837 5837 5837 5838 5838 5838 5839 5839 5839 5840 5840 5839 5839 5839 5840 5840
5788 5789 5789 5790 5790 5791 5792 5792 5793 5794 5794 5794 5794 5793 5793 5793 5793 5793 5794 5795 5795 5795 5795 5795 5795 5796 5796 5797 5797 5797 5797 5799 5800 5801 5801 5802 5803 5804 5804 5805 5806 5807 5808 5809 5811 5812 5814 5815 5816 5816 5816 5817 5819 5820 5821 5823 5824 5825 5825 5826 5827 5828 5829 5830 5831 5832 5833 5833 5834 5834 5835 5835 5835 5836 5836 5837 5837 5837 5838 5838 5838 5837 5838 5838 5838
5786 5787 5787 5788 5789 5789 5790 5791 5791 5792 5792 5792 5792 5791 5791 5791 5791 5792 5792 5793 5794 5794 5794 5794 5794 5794 5794 5795 5795 5795 5795 5797 5798 5799 5799 5799 5800 5801 5802 5803 5803 5804 5805 5806 5807 5809 5811 5812 5813 5814 5814 5815 5816 5818 5819 5820 5821 5822 5823 5824 5825 5826 5826 5827 5828 5829 5830 5831 5831 5832 5832 5833 5833 5833 5834 5834 5835 5835 5835 5835 5835 5835 5836 5836 5836
5784 5784 5785 5786 5787 5787 5788 5789 5789 5790 5790 5790 5790 5789 5789 5789 5790 5791 5791 5791 5792 5792 5792 5792 5792 5792 5792 5793 5794 5794 5793 5794 5795 5797 5798 5798 5798 5798 5799 5799 5800 5801 5801 5802 5804 5805 5807 5809 5810 5811 5811 5812 5813 5815 5816 5818 5819 5820 5821 5822 5823 5823 5824 5825 5826 5827 5828 5828 5829 5829 5830 5830 5831 5831 5831 5832 5832 5833 5833 5833 5833 5833 5833 5834 5834
5782 5782 5783 5783 5784 5785 5786 5787 5787 5788 5788 5788 5788 5788 5787 5787 5788 5788 5788 5789 5790 5790 5790 5790 5790 5790 5790 5791 5791 5792 5791 5792 5793 5794 5795 5796 5796 5796 5796 5796 5797 5798 5798 5799 5799 5801 5803 5805 5806 5807 5808 5810 5810 5812 5813 5814 5816 5817 5818 5819 5820 5821 5822 5822 5823 5824 5825 5825 5826 5827 5827 5828 5828 5828 5829 5829 5830 5830 5830 5830 5831 5831 5831 5831 5831
5780 5781 5781 5781 5782 5783 5784 5784 5785 5785 5786 5786 5786 5785 5785 5785 5786 5786 5786 5787 5787 5788 5788 5788 5788 5788 5788 5789 5789 5789 5789 5789 5790 5791 5792 5793 5793 5793 5793 5794 5794 5795 5795 5795 5795 5797 5799 5801 5802 5804 5806 5807 5808 5809 5810 5811 5812 5813 5815 5816 5817 5818 5819 5819 5820 5821 5822 5822 5823 5824 5824 5825 5825 5825 5826 5826 5827 5827 5827 5827 5828 5828 5828 5828 5829
5778 5779 5779 5779 5780 5780 5781 5782 5782 5783 5783 5783 5783 5783 5783 5784 5784 5784 5784 5784 5785 5785 5785 5785 5785 5785 5786 5786 5787 5787 5787 5787 5787 5788 5789 5789 5790 5790 5790 5791 5791 5791 5791 5791 5792 5793 5795 5797 5799 5801 5802 5804 5805 5806 5807 5808 5809 5810 5812 5813 5814 5815 5815 5816 5817 5818 5819 5819 5819 5820 5821 5822 5822 5822 5823 5823 5824 5824 5824 5824 5824 5825 5825 5826 5826
5776 5776 5777 5777 5777 5777 5778 5779 5779 5780 5780 5781 5780 5781 5781 5781 5782 5782 5782 5782 5782 5783 5783 5783 5783 5783 5783 5784 5784 5784 5784 5785 5785 5786 5786 5786 5787 5787 5788 5788 5787 5787 5788 5788 5789 5790 5792 5794 5795 5797 5799 5801 5802 5803 5804 5805 5806 5807 5809 5810 5811 5811 5812 5813 5814 5815 5815 5816 5816 5816 5817 5818 5819 5819 5819 5820 5820 5820 5821 5821 5822 5822 5822 5823 5823
5772 5773 5774 5775 5775 5775 5775 5776 5776 5777 5777 5777 5777 5778 5778 5778 5779 5779 5779 5779 5780 5780 5780 5781 5781 5781 5781 5782 5782 5782 5782 5782 5783 5783 5784 5784 5784 5784 5785 5785 5785 5785 5785 5785 5786 5787 5788 5790 5792 5794 5795 5797 5798 5799 5801 5802 5803 5805 5806 5807 5807 5808 5809 5810 5811 5811 5811 5812 5813 5813 5814 5815 5815 5816 5816 5817 5817 5817 5818 5818 5818 5819 5819 5820 5820
5769 5770 5771 5772 5772 5772 5773 5773 5774 5774 5774 5774 5774 5775 5775 5775 5776 5776 5777 5777 5777 5778 5778 5778 5779 5779 5779 5779 5779 5780 5780 5781 5781 5781 5782 5782 5782 5782 5782 5782 5782 5783 5783 5783 5783 5784 5785 5787 5788 5790 5791 5793 5794 5796 5798 5799 5800 5801 5802 5803 5804 5805 5806 5807 5807 5808 5808 5809 5810 5811 5811 5812 5812 5813 5813 5814 5814 5814 5814 5815 5815 5816 5816 5817 5817
5767 5768 5768 5769 5769 5770 5770 5771 5771 5771 5771 5771 5771 5772 5772 5773 5773 5774 5774 5774 5775 5775 5775 5776 5776 5776 5776 5776 5777 5778 5778 5779 5779 5779 5779 5779 5779 5779 5780 5780 5780 5780 5781 5781 5780 5781 5782 5783 5785 5786 5787 5789 5791 5792 5794 5796 5797 5798 5799 5800 5801 5802 5802 5803 5804 5805 5805 5806 5807 5808 5808 5809 5809 5809 5810 5810 5811 5811 5812 5812 5812 5813 5813 5814 5814
5765 5765 5766 5766 5767 5767 5767 5768 5768 5768 5769 5769 5769 5769 5770 5770 5771 5771 5772 5772 5772 5772 5773 5773 5773 5773 5773 5773 5774 5775 5776 5776 5776 5776 5776 5776 5777 5777 5777 5778 5778 5778 5778 5779 5779 5779 5780 5780 5781 5783 5784 5785 5787 5789 5790 5791 5793 5795 5796 5796 5797 5798 5798 5799 5800 5802 5803 5804 5805 5805 5805 5806 5806 5806 5807 5808 5808 5809 5809 5809 5810 5810 5811 5811 5812
5763 5763 5764 5764 5764 5764 5765 5765 5766 5766 5766 5766 5766 5767 5767 5767 5768 5768 5769 5769 5769 5770 5770 5770 5771 5770 5770 5771 5772 5772 5773 5773 5773 5773 5774 5774 5774 5775 5775 5776 5776 5776 5776 5776 5777 5777 5777 5778 5779 5780 5781 5782 5784 5785 5786 5787 5789 5790 5792 5792 5793 5794 5795 5796 5797 5798 5799 5800 5801 5801 5802 5802 5803 5804 5804 5805 5806 5806 5806 5807 5807 5808 5808 5809 5809
5760 5761 5762 5762 5762 5763 5763 5763 5763 5763 5763 5764 5764 5764 5765 5765 5765 5765 5766 5766 5767 5767 5767 5767 5768 5768 5767 5768 5770 5770 5770 5770 5770 5770 5771 5771 5772 5773 5773 5774 5774 5774 5774 5774 5774 5775 5775 5775 5776 5777 5777 5779 5780 5781 5782 5783 5784 5786 5787 5788 5789 5790 5791 5792 5793 5794 5796 5797 5797 5797 5798 5799 5799 5801 5801 5802 5802 5803 5803 5804 5805 5805 5805 5806 5806
5758 5759 5759 5760 5761 5761 5761 5761 5761 5761 5761 5761 5761 5762 5762 5762 5763 5763 5763 5764 5764 5764 5764 5764 5765 5765 5765 5766 5767 5767 5767 5767 5767 5768 5769 5770 5770 5771 5771 5771 5771 5771 5771 5771 5772 5773 5774 5774 5774 5775 5775 5777 5778 5779 5779 5779 5781 5782 5783 5784 5785 5786 5787 5788 5789 5790 5791 5793 5793 5794 5795 5796 5796 5796 5797 5798 5799 5799 5800 5801 5802 5802 5802 5803 5803
5756 5756 5757 5758 5758 5759 5759 5759 5759 5759 5759 5759 5759 5759 5760 5760 5760 5760 5761 5761 5762 5762 5762 5762 5762 5763 5763 5763 5763 5764 5764 5764 5764 5765 5766 5767 5767 5768 5769 5769 5769 5768 5768 5769 5770 5771 5772 5772 5772 5773 5774 5775 5776 5776 5776 5776 5777 5778 5779 5780 5781 5782 5782 5784 5785 5786 5787 5788 5789 5791 5792 5792 5792 5792 5793 5795 5796 5796 5796 5797 5798 5798 5799 5799 5800
5754 5754 5755 5755 5756 5756 5756 5757 5757 5757 5757 5757 5757 5757 5757 5757 5757 5758 5758 5758 5759 5759 5759 5759 5759 5760 5761 5761 5761 5761 5761 5761 5762 5762 5762 5763 5764 5765 5765 5765 5766 5766 5765 5766 5768 5769 5769 5770 5770 5771 5772 5772 5772 5772 5772 5772 5773 5774 5775 5776 5776 5777 5778 5779 5781 5782 5783 5784 5785 5786 5787 5788 5788 5788 5790 5791 5792 5792 5792 5793 5793 5793 5794 5796 5796
5752 5752 5753 5753 5753 5754 5754 5754 5755 5755 5755 5755 5755 5755 5755 5755 5755 5755 5755 5756 5756 5756 5756 5756 5757 5757 5757 5758 5758 5758 5759 5759 5759 5759 5760 5760 5761 5762 5762 5762 5762 5763 5763 5764 5765 5766 5766 5767 5768 5768 5769 5768 5768 5768 5768 5768 5769 5770 5772 5772 5771 5772 5773 5774 5776 5777 5778 5779 5780 5781 5782 5784 5784 5784 5786 5786 5787 5788 5788 5788 5789 5789 5791 5791 5792
5751 5751 5751 5751 5751 5751 5752 5752 5752 5753 5753 5753 5753 5752 5752 5752 5752 5753 5753 5753 5753 5753 5753 5753 5754 5754 5754 5755 5755 5755 5756 5756 5756 5756 5757 5757 5757 5758 5758 5759 5759 5759 5760 5761 5762 5763 5763 5764 5765 5765 5765 5765 5765 5765 5765 5765 5766 5767 5769 5768 5767 5767 5768 5770 5771 5772 5773 5775 5776 5775 5777 5779 5779 5780 5781 5781 5782 5783 5782 5783 5784 5785 5786 5787 5789
5749 5749 5749 5749 5749 5749 5749 5750 5750 5750 5751 5751 5751 5751 5751 5750 5750 5750 5750 5750 5750 5751 5751 5751 5751 5751 5751 5752 5752 5752 5752 5753 5753 5753 5753 5754 5754 5754 5755 5755 5755 5756 5756 5757 5759 5759 5760 5760 5761 5761 5762 5762 5762 5762 5762 5763 5763 5764 5765 5765 5764 5764 5765 5766 5766 5768 5769 5771 5771 5771 5771 5773 5774 5775 5776 5776 5778 5778 5778 5779 5780 5781 5782 5782 5784
5748 5748 5748 5748 5748 5747 5747 5748 5748 5748 5748 5748 5748 5749 5749 5749 5748 5748 5748 5748 5748 5748 5748 5748 5748 5748 5749 5749 5749 5749 5750 5750 5750 5750 5750 5750 5751 5751 5751 5752 5752 5752 5753 5754 5755 5756 5756 5757 5758 5758 5758 5758 5758 5758 5759 5759 5760 5761 5762 5762 5761 5761 5761 5762 5763 5764 5765 5766 5767 5767 5767 5767 5769 5770 5771 5772 5773 5774 5774 5774 5776 5777 5777 5777 5779
5746 5746 5746 5746 5746 5746 5746 5746 5746 5746 5746 5746 5746 5746 5746 5746 5746 5746 5746 5746 5746 5746 5746 5746 5746 5746 5746 5746 5746 5747 5747 5747 5747 5747 5747 5748 5748 5748 5748 5749 5749 5749 5750 5751 5752 5753 5753 5754 5754 5754 5755 5755 5755 5755 5756 5756 5757 5757 5758 5759 5759 5759 5759 5759 5760 5760 5761 5762 5762 5763 5763 5763 5764 5765 5766 5767 5768 5770 5770 5770 5771 5772 5772 5773 5773
5744 5744 5744 5744 5744 5744 5744 5744 5744 5744 5744 5745 5745 5745 5745 5745 5745 5744 5744 5744 5744 5744 5744 5744 5744 5744 5744 5744 5744 5744 5744 5744 5745 5745 5745 5745 5745 5746 5746 5746 5746 5747 5747 5748 5749 5749 5750 5751 5751 5751 5752 5752 5752 5753 5753 5754 5754 5754 5755 5755 5756 5756 5756 5756 5756 5757 5757 5757 5758 5758 5759 5759 5759 5760 5761 5762 5763 5764 5765 5766 5766 5767 5767 5768 5768
5742 5742 5743 5742 5742 5742 5742 5742 5742 5742 5742 5743 5743 5743 5743 5743 5743 5743 5743 5743 5743 5743 5742 5742 5742 5742 5742 5742 5742 5742 5742 5742 5743 5743 5743 5743 5743 5743 5743 5744 5744 5744 5744 5745 5746 5747 5748 5748 5749 5749 5749 5750 5750 5750 5751 5751 5752 5752 5752 5752 5752 5753 5753 5754 5754 5754 5753 5753 5754 5754 5754 5755 5755 5755 5756 5757 5757 5758 5760 5761 5762 5763 5763 5763 5764
5740 5740 5740 5740 5740 5740 5740 5740 5740 5740 5741 5741 5741 5742 5742 5742 5742 5741 5741 5741 5741 5741 5741 5741 5741 5741 5741 5741 5741 5741 5741 5741 5741 5741 5741 5741 5741 5741 5741 5741 5742 5742 5742 5743 5743 5744 5745 5746 5746 5747 5747 5748 5748 5748 5748 5749 5749 5750 5750 5750 5750 5750 5751 5751 5751 5751 5751 5750 5751 5751 5751 5751 5752 5752 5752 5752 5753 5753 5754 5756 5757 5758 5759 5759 5759
5738 5738 5738 5738 5738 5738 5738 5739 5739 5739 5739 5739 5740 5740 5740 5740 5740 5740 5740 5740 5740 5740 5740 5740 5740 5739 5739 5739 5739 5739 5739 5739 5739 5739 5739 5739 5739 5739 5739 5739 5740 5740 5740 5741 5741 5741 5742 5743 5744 5745 5745 5745 5746 5746 5746 5747 5747 5747 5747 5747 5748 5748 5748 5748 5748 5748 5748 5748 5748 5748 5748 5749 5749 5749 5749 5749 5749 5750 5750 5751 5752 5754 5754 5754 5754
5735 5736 5735 5735 5735 5736 5736 5736 5737 5737 5738 5738 5738 5738 5739 5739 5739 5739 5738 5738 5738 5738 5738 5738 5738 5738 5738 5737 5737 5737 5737 5737 5737 5738 5738 5738 5738 5738 5737 5738 5738 5738 5738 5738 5739 5739 5739 5740 5741 5742 5742 5743 5743 5744 5744 5744 5744 5745 5745 5745 5745 5745 5745 5745 5745 5745 5745 5745 5745 5745 5746 5746 5746 5746 5746 5746 5746 5746 5747 5747 5748 5749 5750 5750 5750
5733 5733 5733 5734 5734 5734 5734 5734 5734 5735 5736 5736 5737 5737 5737 5737 5737 5737 5736 5736 5736 5736 5736 5736 5736 5736 5736 5736 5736 5735 5735 5735 5735 5736 5736 5736 5736 5736 5736 5736 5736 5736 5736 5736 5736 5736 5737 5737 5738 5738 5739 5740 5740 5741 5741 5741 5741 5742 5742 5742 5742 5742 5743 5743 5743 5742 5742 5742 5742 5743 5743 5743 5743 5743 5743 5743 5743 5743 5743 5744 5744 5745 5746 5746 5746
5731 5731 5731 5732 5732 5731 5731 5731 5732 5732 5733 5734 5734 5734 5734 5734 5734 5734 5734 5734 5734 5734 5734 5734 5734 5734 5734 5734 5734 5733 5733 5733 5733 5733 5734 5734 5734 5734 5734 5734 5734 5734 5734 5734 5734 5734 5734 5735 5735 5735 5736 5736 5737 5738 5738 5738 5739 5739 5739 5739 5739 5739 5739 5739 5739 5739 5739 5739 5739 5739 5739 5739 5740 5740 5740 5740 5740 5740 5740 5741 5741 5741 5742 5742 5742
5728 5728 5729 5729 5729 5729 5729 5729 5729 5729 5730 5730 5731 5731 5731 5732 5732 5732 5732 5732 5731 5731 5731 5732 5731 5731 5731 5731 5731 5731 5731 5731 5731 5731 5731 5732 5732 5732 5732 5732 5732 5732 5732 5732 5732 5732 5732 5732 5732 5732 5733 5733 5733 5734 5735 5735 5735 5736 5736 5736 5735 5735 5735 5735 5735 5735 5735 5735 5735 5735 5735 5735 5736 5736 5736 5737 5737 5737 5737 5737 5737 5737 5738 5738 5738
5725 5725 5725 5725 5725 5726 5727 5727 5727 5727 5727 5727 5727 5727 5728 5729 5729 5729 5729 5729 5729 5729 5729 5729 5729 5729 5729 5728 5728 5728 5728 5729 5729 5729 5729 5729 5729 5729 5729 5729 5729 5729 5729 5729 5729 5729 5729 5729 5729 5729 5729 5730 5730 5730 5731 5731 5732 5732 5732 5732 5732 5732 5732 5731 5731 5731 5731 5731 5731 5731 5731 5731 5731 5732 5732 5732 5732 5732 5732 5732 5733 5733 5733 5733 5734
5721 5722 5722 5722 5723 5723 5724 5724 5724 5724 5724 5724 5724 5724 5724 5725 5725 5725 5725 5725 5726 5726 5726 5726 5726 5726 5726 5726 5726 5725 5725 5726 5726 5726 5726 5726 5726 5726 5726 5726 5726 5726 5726 5726 5726 5726 5726 5726 5726 5726 5726 5726 5726 5726 5727 5728 5728 5728 5728 5728 5728 5728 5728 5728 5727 5727 5727 5727 5727 5727 5727 5727 5727 5727 5727 5727 5727 5727 5727 5728 5728 5728 5729 5729 5730
5718 5718 5718 5719 5720 5721 5721 5721 5722 5722 5722 5722 5722 5721 5721 5721 5721 5722 5722 5721 5722 5722 5723 5723 5723 5723 5722 5723 5723 5723 5723 5723 5723 5723 5723 5723 5723 5723 5723 5723 5723 5723 5723 5723 5723 5723 5723 5723 5723 5723 5723 5722 5723 5722 5723 5723 5724 5724 5724 5724 5724 5724 5724 5724 5724 5724 5724 5723 5723 5723 5723 5723 5723 5723 5723 5722 5722 5722 5722 5723 5723 5723 5724 5724 5725
5713 5714 5714 5715 5716 5717 5717 5718 5718 5718 5719 5719 5719 5718 5718 5718 5718 5718 5718 5718 5718 5718 5719 5719 5720 5720 5719 5719 5719 5719 5719 5720 5720 5720 5719 5720 5720 5720 5720 5720 5720 5720 5720 5720 5720 5720 5720 5720 5720 5720 5720 5719 5719 5719 5719 5719 5719 5719 5720 5720 5720 5719 5719 5720 5719 5720 5720 5719 5719 5719 5719 5719 5719 5719 5718 5718 5718 5718 5718 5718 5718 5718 5718 5719 5719
5709 5709 5710 5710 5711 5711 5712 5713 5713 5714 5714 5714 5714 5714 5714 5715 5715 5715 5715 5715 5714 5714 5714 5714 5715 5716 5716 5715 5715 5715 5715 5716 5716 5716 5716 5716 5716 5716 5716 5716 5716 5716 5716 5716 5716 5716 5716 5716 5716 5716 5716 5716 5716 5716 5716 5715 5715 5715 5715 5715 5716 5716 5715 5715 5714 5714 5715 5715 5715 5715 5715 5714 5715 5714 5714 5714 5713 5713 5713 5713 5713 5713 5713 5713 5713
5704 5704 5705 5705 5706 5706 5706 5707 5708 5708 5708 5708 5709 5709 5709 5710 5710 5710 5711 5711 5711 5711 5710 5710 5710 5711 5711 5711 5711 5711 5711 5711 5711 5711 5711 5711 5711 5712 5712 5712 5711 5711 5711 5711 5711 5711 5712 5712 5712 5712 5712 5712 5711 5711 5711 5711 5711 5711 5711 5710 5711 5711 5711 5711 5710 5708 5708 5709 5710 5711 5710 5709 5710 5710 5710 5709 5708 5708 5708 5708 5708 5708 5708 5708 5708
5698 5699 5699 5699 5700 5700 5700 5701 5701 5702 5702 5702 5702 5703 5703 5704 5705 5706 5706 5707 5707 5707 5706 5706 5706 5706 5706 5706 5706 5706 5706 5706 5706 5706 5706 5706 5707 5707 5707 5706 5706 5706 5706 5706 5706 5706 5707 5707 5707 5707 5707 5707 5706 5705 5706 5706 5706 5705 5705 5705 5705 5706 5706 5707 5706 5704 5702 5702 5704 5706 5705 5703 5703 5704 5704 5704 5703 5702 5702 5702 5702 5702 5702 5702 5702
5692 5693 5693 5694 5694 5695 5695 5695 5695 5695 5695 5695 5696 5696 5697 5697 5698 5699 5700 5701 5701 5702 5702 5701 5701 5700 5701 5701 5701 5701 5701 5701 5701 5700 5700 5701 5701 5701 5701 5700 5700 5700 5699 5700 5700 5700 5700 5701 5701 5701 5700 5701 5700 5699 5698 5699 5699 5699 5698 5699 5699 5699 5700 5700 5701 5700 5697 5696 5697 5699 5700 5698 5697 5697 5698 5697 5696 5696 5696 5696 5696 5696 5696 5696 5696
5686 5687 5687 5687 5688 5688 5688 5689 5689 5689 5689 5689 5690 5690 5690 5690 5691 5692 5693 5694 5694 5695 5695 5695 5695 5695 5695 5695 5695 5695 5695 5695 5695 5694 5694 5694 5694 5694 5694 5693 5693 5692 5692 5692 5692 5693 5693 5694 5694 5693 5693 5693 5693 5692 5691 5691 5691 5691 5691 5691 5691 5691 5692 5693 5694 5694 5692 5690 5690 5691 5693 5693 5690 5691 5691 5689 5688 5689 5689 5689 5690 5690 5689 5689 5689
5681 5681 5681 5682 5682 5682 5682 5682 5682 5682 5683 5683 5683 5684 5684 5684 5684 5685 5686 5686 5687 5687 5688 5688 5688 5688 5688 5688 5688 5688 5688 5687 5687 5687 5687 5687 5687 5687 5686 5686 5685 5685 5685 5685 5685 5685 5686 5686 5686 5686 5685 5685 5685 5684 5684 5683 5683 5683 5683 5683 5683 5683 5683 5684 5685 5686 5685 5683 5683 5684 5686 5686 5683 5683 5684 5682 5681 5681 5681 5681 5681 5681 5681 5681 5681
5675 5675 5675 5675 5675 5676 5676 5676 5677 5677 5676 5676 5677 5677 5677 5677 5677 5678 5679 5679 5679 5679 5680 5680 5680 5680 5680 5680 5680 5680 5680 5680 5681 5680 5680 5679 5679 5679 5679 5678 5678 5677 5677 5677 5677 5677 5678 5678 5678 5677 5677 5677 5676 5676 5676 5675 5675 5674 5674 5675 5675 5674 5674 5675 5676 5676 5675 5674 5673 5675 5678 5679 5676 5675 5676 5675 5674 5674 5673 5673 5673 5672 5672 5673 5673
5668 5669 5668 5668 5668 5668 5669 5670 5670 5670 5670 5670 5670 5670 5670 5670 5670 5670 5671 5671 5672 5672 5672 5672 5672 5672 5673 5673 5672 5672 5672 5673 5673 5673 5672 5672 5672 5672 5671 5671 5670 5670 5669 5668 5669 5669 5669 5669 5668 5668 5668 5668 5668 5667 5667 5666 5666 5666 5665 5665 5665 5664 5665 5667 5668 5667 5665 5664 5664 5664 5667 5669 5667 5667 5668 5667 5666 5666 5665 5665 5664 5664 5664 5664 5664
5662 5662 5662 5662 5662 5662 5662 5662 5662 5663 5663 5663 5663 5663 5663 5663 5663 5663 5663 5664 5664 5664 5664 5664 5664 5664 5665 5665 5664 5664 5664 5664 5664 5664 5664 5664 5664 5664 5664 5663 5663 5662 5661 5661 5661 5660 5660 5660 5659 5659 5659 5659 5658 5658 5658 5657 5657 5656 5656 5656 5655 5654 5655 5657 5658 5658 5657 5655 5654 5653 5656 5658 5658 5657 5658 5658 5658 5658 5657 5656 5655 5655 5655 5655 5656
5655 5655 5655 5655 5656 5655 5655 5655 5655 5656 5656 5656 5656 5656 5656 5656 5656 5656 5656 5656 5656 5657 5657 5657 5657 5657 5657 5657 5657 5656 5656 5656 5656 5655 5655 5656 5656 5656 5655 5655 5655 5654 5654 5654 5653 5652 5651 5651 5651 5650 5650 5649 5649 5649 5648 5647 5647 5646 5646 5646 5645 5644 5645 5646 5647 5648 5648 5647 5645 5643 5645 5647 5647 5646 5648 5649 5649 5649 5648 5648 5647 5646 5646 5647 5647
5648 5649 5649 5648 5648 5648 5648 5649 5648 5648 5648 5648 5648 5649 5649 5649 5649 5649 5649 5649 5649 5649 5649 5650 5650 5649 5649 5649 5649 5648 5648 5648 5648 5648 5647 5647 5647 5647 5647 5647 5647 5646 5646 5645 5645 5644 5643 5642 5642 5641 5641 5640 5640 5639 5639 5638 5637 5637 5636 5636 5635 5635 5635 5636 5636 5637 5638 5638 5635 5634 5635 5637 5636 5636 5637 5638 5640 5640 5639 5638 5638 5637 5636 5637 5638